FENGYUN 1C DEB

Satellite information

Favourite Embed

Satellite Type and Status

DEBRISIN ORBIT

Key statistics

Satellite FENGYUN 1C DEB at a glance.

Uptime

9660

Days in orbit

Revolutions

≈ 13.3

Per day

Orbit

SSO

Sun Synchronous Orbit

Inclination

102.1

Latest

Satellite identification and parameters

Extended collection of information and parameters for FENGYUN 1C DEB.

Object identification

Identified? True

Debris? True

Object name: FENGYUN 1C DEB

International designator: 1999-025DPK

Object number (NORAD): 35203

Object ID (CCSDS): 35203

Country: PEOPLES REPUBLIC OF CHINA (PRC)

Current information (Y/N): Y

RCS size: SMALL

Orbital parameters

Period: 108.617 minutes

Inclination: 102.0663 deg

SMA: 7540.949 km

Apoapsis: 1554.143 km

Periapsis: 771.486 km

RAAN: 220.9017 deg

Eccentricy: 0.05189382

Argument of periapsis: 333.431 deg

Mean anomaly: 24.1038 deg

Mean motion: 13.25756428 rev/day

Mean motion (dot): 0.00008434 rev/day2

B* drag term: 0.0093450083 1/REarth

Two-line elements (TLE)

Creation date: Sept. 24, 2025, 10:28 a.m.

Reference frame: TEME

Reference center: EARTH

Epoch: Sept. 24, 2025, 2:36 a.m. UTC

TLE line 0: 0 FENGYUN 1C DEB

TLE line 1: 1 35203U 99025DPK 25267.10848087 .00008434 00000-0 93450-2 0 9998

TLE line 2: 2 35203 102.0663 220.9017 0518938 333.4310 24.1038 13.25756428585958

Live tracking on map

Real-time ground track for satellite FENGYUN 1C DEB.

In-orbit conjunctions

A list of the most updated potential collisions computed for object FENGYUN 1C DEB.

Target Orbit TCA Probability of collision Miss distance Type
CZ-6A DEB LEO 2024-12-09 15:03:44 0.0001031162 892.0 (m) DEBRIS

Associated space launch

Chinese polar orbiting meteorological satellite

FENGYUN 1C DEB was lifted into orbit during the mission ‘Long March 4B | Feng Yun 1C’, on board a Long March 4B space rocket.

The launch took place on May 10, 1999, 1:33 a.m. from Launch Complex 7.

For more information about the launch, click the button.

Launch to space Long March 4B | Feng Yun 1C
Long March 4B | Feng Yun 1C

Agency: N/A

Status: Launch Successful

Launch date: May 10, 1999, 1:33 a.m. UTC

Rocket: Long March 4B

Launch pad: Launch Complex 7

Location: Taiyuan Satellite Launch Center, People's Republic of China

...

Latest news about this satellite

There are no fresh news available about this satellite. Check back as we update our databases every day.


Newsletter sign-up

Weekly statistics, charts and insights to help you stay on top of the space industry.